Hourly Weather Dalno

Today, 17 April, Saturday

Time Temperature Precipitation Wind Pressure Humidity
00:00 +1°C° 0 mm 4 mps 756 mmHg 89%
01:00 +2°C° 0 mm 3 mps 756 mmHg 90%
02:00 +2°C° 0 mm 3 mps 756 mmHg 90%
03:00 +2°C° 0 mm 3 mps 756 mmHg 91%
04:00 +4°C° 0 mm 2 mps 756 mmHg 91%
05:00 +4°C° 0 mm 2 mps 756 mmHg 91%
06:00 +4°C° 0 mm 2 mps 756 mmHg 91%
07:00 +5°C° 0 mm 2 mps 756 mmHg 90%
08:00 +5°C° 0 mm 3 mps 756 mmHg 88%
09:00 +5°C° 0 mm 3 mps 756 mmHg 85%
10:00 +6°C° 0 mm 4 mps 756 mmHg 82%
11:00 +8°C° 0.1 mm 4 mps 756 mmHg 78%
12:00 +9°C° 0.1 mm 5 mps 756 mmHg 73%
13:00 +12°C° 0.1 mm 5 mps 756 mmHg 69%
14:00 +10°C° 0.2 mm 5 mps 756 mmHg 71%
15:00 +10°C° 0.2 mm 5 mps 756 mmHg 74%
16:00 +10°C° 0.2 mm 5 mps 755 mmHg 76%
17:00 +9°C° 0.1 mm 5 mps 756 mmHg 81%
18:00 +7°C° 0.1 mm 4 mps 756 mmHg 86%
19:00 +6°C° 0.1 mm 4 mps 756 mmHg 91%
20:00 +7°C° 0 mm 3 mps 756 mmHg 93%
21:00 +5°C° 0 mm 3 mps 756 mmHg 94%
22:00 +5°C° 0 mm 3 mps 756 mmHg 96%
23:00 +5°C° 0 mm 3 mps 756 mmHg 96%

Tomorrow, 18 April, Sunday

Time Temperature Precipitation Wind Pressure Humidity
00:00 +4°C° 0 mm 3 mps 756 mmHg 96%
01:00 +5°C° 0 mm 2 mps 756 mmHg 95%
02:00 +5°C° 0 mm 2 mps 756 mmHg 95%
03:00 +5°C° 0 mm 2 mps 756 mmHg 95%
04:00 +4°C° 0 mm 3 mps 756 mmHg 95%
05:00 +5°C° 0 mm 3 mps 756 mmHg 93%
06:00 +7°C° 0 mm 3 mps 756 mmHg 91%
07:00 +8°C° 0 mm 3 mps 756 mmHg 88%
08:00 +9°C° 0.1 mm 3 mps 756 mmHg 82%
09:00 +11°C° 0.1 mm 4 mps 756 mmHg 77%
10:00 +12°C° 0.1 mm 4 mps 756 mmHg 71%
11:00 +13°C° 0.3 mm 4 mps 756 mmHg 68%
12:00 +13°C° 0.3 mm 4 mps 756 mmHg 64%
13:00 +14°C° 0.3 mm 4 mps 756 mmHg 61%
14:00 +13°C° 0.2 mm 4 mps 756 mmHg 65%
15:00 +12°C° 0.2 mm 4 mps 756 mmHg 70%
16:00 +12°C° 0.2 mm 4 mps 756 mmHg 74%
17:00 +11°C° 0.2 mm 3 mps 756 mmHg 79%
18:00 +10°C° 0.2 mm 3 mps 756 mmHg 85%
19:00 +9°C° 0.2 mm 3 mps 756 mmHg 90%
20:00 +9°C° 0.4 mm 2 mps 756 mmHg 92%
21:00 +9°C° 0.4 mm 2 mps 756 mmHg 93%
22:00 +8°C° 0.4 mm 2 mps 756 mmHg 94%
23:00 +8°C° 0.1 mm 2 mps 756 mmHg 94%

Day after tomorrow, 19 April, Monday

Time Temperature Precipitation Wind Pressure Humidity
00:00 +8°C° 0.1 mm 2 mps 756 mmHg 94%
01:00 +8°C° 0.1 mm 2 mps 756 mmHg 94%
02:00 +8°C° 0 mm 2 mps 756 mmHg 93%
03:00 +8°C° 0 mm 2 mps 756 mmHg 92%
04:00 +8°C° 0 mm 2 mps 756 mmHg 92%
05:00 +8°C° 0.1 mm 2 mps 756 mmHg 91%
06:00 +9°C° 0.1 mm 2 mps 756 mmHg 90%
07:00 +9°C° 0.1 mm 2 mps 756 mmHg 89%
08:00 +11°C° 0.1 mm 3 mps 755 mmHg 80%
09:00 +12°C° 0.1 mm 4 mps 755 mmHg 72%
10:00 +14°C° 0.1 mm 4 mps 755 mmHg 63%
11:00 +14°C° 0 mm 4 mps 755 mmHg 59%
12:00 +15°C° 0 mm 4 mps 755 mmHg 56%
13:00 +15°C° 0 mm 4 mps 755 mmHg 52%
14:00 +15°C° 0 mm 4 mps 754 mmHg 54%
15:00 +14°C° 0 mm 4 mps 754 mmHg 56%
16:00 +14°C° 0 mm 3 mps 754 mmHg 57%
17:00 +13°C° 0 mm 3 mps 754 mmHg 60%
18:00 +12°C° 0 mm 3 mps 754 mmHg 63%
19:00 +11°C° 0 mm 3 mps 754 mmHg 66%
20:00 +10°C° 0 mm 3 mps 754 mmHg 68%
21:00 +9°C° 0 mm 3 mps 754 mmHg 70%
22:00 +9°C° 0 mm 2 mps 754 mmHg 72%
23:00 +8°C° 0 mm 2 mps 754 mmHg 75%

20 April, Tuesday

Time Temperature Precipitation Wind Pressure Humidity
00:00 +8°C° 0 mm 2 mps 754 mmHg 78%
01:00 +7°C° 0 mm 2 mps 754 mmHg 81%
02:00 +7°C° 0 mm 2 mps 754 mmHg 84%
03:00 +6°C° 0 mm 2 mps 753 mmHg 86%
04:00 +6°C° 0 mm 2 mps 753 mmHg 88%
05:00 +7°C° 0 mm 2 mps 753 mmHg 85%
06:00 +7°C° 0 mm 2 mps 753 mmHg 81%
07:00 +8°C° 0 mm 3 mps 753 mmHg 78%
08:00 +9°C° 0 mm 3 mps 753 mmHg 71%
09:00 +10°C° 0 mm 3 mps 753 mmHg 64%
10:00 +11°C° 0 mm 3 mps 753 mmHg 58%
11:00 +11°C° 0 mm 3 mps 752 mmHg 57%
12:00 +11°C° 0 mm 3 mps 752 mmHg 57%
13:00 +11°C° 0 mm 3 mps 752 mmHg 57%
14:00 +11°C° 0 mm 3 mps 752 mmHg 56%
15:00 +11°C° 0 mm 3 mps 751 mmHg 55%
16:00 +12°C° 0 mm 2 mps 751 mmHg 54%
17:00 +10°C° 0 mm 2 mps 751 mmHg 60%
18:00 +9°C° 0 mm 2 mps 751 mmHg 67%
19:00 +8°C° 0 mm 2 mps 751 mmHg 73%
20:00 +8°C° 0 mm 2 mps 751 mmHg 75%
21:00 +7°C° 0 mm 2 mps 751 mmHg 78%
22:00 +7°C° 0 mm 2 mps 750 mmHg 80%
23:00 +8°C° 0 mm 1 mps 750 mmHg 80%

21 April, Wednesday

Time Temperature Precipitation Wind Pressure Humidity
00:00 +8°C° 0 mm 1 mps 750 mmHg 80%
01:00 +8°C° 0 mm 1 mps 750 mmHg 80%
02:00 +7°C° 0 mm 1 mps 749 mmHg 81%
03:00 +7°C° 0 mm 1 mps 749 mmHg 81%
04:00 +7°C° 0 mm 1 mps 749 mmHg 81%
05:00 +8°C° 0 mm 1 mps 749 mmHg 79%
06:00 +7°C° 0 mm 0 mps 749 mmHg 77%
07:00 +8°C° 0 mm 0 mps 749 mmHg 74%
08:00 +10°C° 0.1 mm 1 mps 748 mmHg 68%
09:00 +11°C° 0.1 mm 1 mps 748 mmHg 62%
10:00 +12°C° 0.1 mm 1 mps 748 mmHg 55%
11:00 +13°C° 0.1 mm 2 mps 748 mmHg 53%
12:00 +13°C° 0.1 mm 2 mps 747 mmHg 51%
13:00 +14°C° 0.1 mm 2 mps 747 mmHg 49%
14:00 +14°C° 0.1 mm 2 mps 746 mmHg 51%
15:00 +14°C° 0.1 mm 2 mps 746 mmHg 53%
16:00 +14°C° 0.1 mm 2 mps 746 mmHg 55%
17:00 +13°C° 0.4 mm 2 mps 746 mmHg 64%
18:00 +10°C° 0.4 mm 2 mps 746 mmHg 74%
19:00 +9°C° 0.4 mm 2 mps 746 mmHg 83%
20:00 +8°C° 0.3 mm 3 mps 746 mmHg 86%
21:00 +6°C° 0.3 mm 4 mps 746 mmHg 88%
22:00 +6°C° 0.3 mm 5 mps 746 mmHg 91%
23:00 +5°C° 0.3 mm 5 mps 746 mmHg 90%

22 April, Thursday

Time Temperature Precipitation Wind Pressure Humidity
00:00 +3°C° 0.3 mm 5 mps 747 mmHg 90%
01:00 +3°C° 0.3 mm 5 mps 747 mmHg 90%
02:00 +1°C° 0.1 mm 5 mps 747 mmHg 90%
03:00 0°C° 0.1 mm 5 mps 748 mmHg 91%
04:00 -1°C° 0.1 mm 5 mps 748 mmHg 91%
05:00 0°C° 0 mm 5 mps 749 mmHg 89%
06:00 0°C° 0 mm 5 mps 749 mmHg 87%
07:00 0°C° 0 mm 5 mps 750 mmHg 84%
08:00 +1°C° 0 mm 5 mps 750 mmHg 80%
09:00 +2°C° 0 mm 5 mps 750 mmHg 76%
10:00 +2°C° 0 mm 5 mps 751 mmHg 71%
11:00 +3°C° 0.1 mm 5 mps 751 mmHg 66%
12:00 +5°C° 0.1 mm 5 mps 751 mmHg 60%
13:00 +6°C° 0.1 mm 5 mps 751 mmHg 54%
14:00 +7°C° 0.2 mm 5 mps 752 mmHg 55%
15:00 +7°C° 0.2 mm 5 mps 752 mmHg 55%
16:00 +7°C° 0.2 mm 5 mps 752 mmHg 56%
17:00 +6°C° 0.2 mm 4 mps 752 mmHg 63%
18:00 +5°C° 0.2 mm 3 mps 753 mmHg 70%
19:00 +6°C° 0.2 mm 1 mps 753 mmHg 77%
20:00 +5°C° 0 mm 1 mps 753 mmHg 81%
21:00 +4°C° 0 mm 1 mps 754 mmHg 85%
22:00 +4°C° 0 mm 1 mps 754 mmHg 89%
23:00 +4°C° 0 mm 1 mps 754 mmHg 89%
Show more